EW7786 Weather Reports


Display with metric or nautical units.
time (UTC)temp
F
wind
direction
speed
MPH
gust
MPH
rain 1hr
in
rain 24hr
in
rain mn
in
humidity
%
barometer
mb
20260906011540 80 18 4.0 5.0 0.00 0.00 0.00 39 1011.2
20260906010034 81 14 3.0 5.0 0.00 0.00 0.00 39 1010.9
20260906004538 82 14 5.0 7.0 0.00 0.00 0.00 39 1010.8
20260906003046 84 23 4.0 6.0 0.00 0.00 0.00 39 1010.7
20260906001533 85 28 4.0 8.0 0.00 0.00 0.00 39 1010.5
20260906000033 86 17 4.0 8.0 0.00 0.00 0.00 39 1010.8
20260905234532 88 17 5.0 9.0 0.00 0.00 0.00 39 1010.8
20260905233032 89 26 5.0 10.0 0.00 0.00 0.00 39 1010.8
20260905231536 90 24 6.0 9.0 0.00 0.00 0.00 39 1010.8
20260905230031 90 20 6.0 9.0 0.00 0.00 0.00 39 1010.8
20260905224533 90 10 4.0 11.0 0.00 0.00 0.00 39 1010.6
20260905223029 91 26 6.0 11.0 0.00 0.00 0.00 39 1010.4
20260905221529 91 329 6.0 13.0 0.00 0.00 0.00 39 1010.6
20260905220028 90 9 6.0 9.0 0.00 0.00 0.00 39 1010.5
20260905214527 90 13 6.0 10.0 0.00 0.00 0.00 39 1010.6
20260905213038 91 350 8.0 13.0 0.00 0.00 0.00 39 1010.6
20260905211531 92 12 8.0 12.0 0.00 0.00 0.00 39 1010.5
20260905210026 92 9 8.0 14.0 0.00 0.00 0.00 39 1010.6
20260905204524 93 336 7.0 11.0 0.00 0.00 0.00 39 1010.7
20260905203024 93 5 11.0 14.0 0.00 0.00 0.00 39 1010.9
20260905201522 93 351 11.0 15.0 0.00 0.00 0.00 39 1011.1
20260905200020 93 319 7.0 13.0 0.00 0.00 0.00 39 1011.0
20260905194520 93 355 7.0 13.0 0.00 0.00 0.00 39 1011.1
20260905193019 92 343 6.0 13.0 0.00 0.00 0.00 39 1011.1
20260905191519 93 319 4.0 12.0 0.00 0.00 0.00 39 1011.2
20260905190016 94 336 5.0 11.0 0.00 0.00 0.00 39 1011.3
20260905184512 93 330 6.0 12.0 0.00 0.00 0.00 39 1011.5
20260905183008 93 344 4.0 11.0 0.00 0.00 0.00 39 1011.7
20260905181505 93 323 7.0 11.0 0.00 0.00 0.00 39 1011.8
20260905174556 91 339 7.0 12.0 0.00 0.00 0.00 39 1012.1
20260905173052 91 331 5.0 9.0 0.00 0.00 0.00 39 1012.1
20260905171549 90 339 4.0 10.0 0.00 0.00 0.00 39 1012.2
20260905170053 90 350 5.0 10.0 0.00 0.00 0.00 39 1012.3
20260905164546 90 330 4.0 9.0 0.00 0.00 0.00 39 1012.4
20260905163042 89 335 6.0 9.0 0.00 0.00 0.00 39 1012.5
20260905161541 89 329 3.0 6.0 0.00 0.00 0.00 39 1012.5
20260905160046 88 323 3.0 4.0 0.00 0.00 0.00 39 1012.5
20260905154542 89 321 3.0 8.0 0.00 0.00 0.00 39 1012.5
20260905153039 89 291 4.0 7.0 0.00 0.00 0.00 39 1012.4
20260905151536 88 267 3.0 7.0 0.00 0.00 0.00 39 1012.4
20260905150035 87 264 4.0 7.0 0.00 0.00 0.00 39 1012.2
20260905144535 86 251 4.0 5.0 0.00 0.00 0.00 39 1012.0
20260905143026 84 228 3.0 5.0 0.00 0.00 0.00 39 1012.0
20260905141521 82 219 2.0 4.0 0.00 0.00 0.00 39 1012.1
20260905140020 83 219 2.0 5.0 0.00 0.00 0.00 39 1012.3
20260905134520 82 216 3.0 5.0 0.00 0.00 0.00 39 1012.2
20260905133014 80 215 0.0 2.0 0.00 0.00 0.00 39 1012.3
20260905131516 79 215 0.0 2.0 0.00 0.00 0.00 39 1012.2
20260905130005 77 215 1.0 3.0 0.00 0.00 0.00 39 1012.2
20260905124501 76 215 0.0 0.0 0.00 0.00 0.00 39 1012.1
20260905123104 74 215 0.0 1.0 0.00 0.00 0.00 39 1012.0
20260905121556 74 215 1.0 2.0 0.00 0.00 0.00 39 1012.0
20260905114541 73 215 0.0 0.0 0.00 0.00 0.00 39 1011.4
20260905113037 73 215 1.0 4.0 0.00 0.00 0.00 39 1011.4
20260905111533 73 215 1.0 3.0 0.00 0.00 0.00 39 1011.2
20260905110033 73 215 0.0 2.0 0.00 0.00 0.00 39 1011.1
20260905104530 73 215 1.0 3.0 0.00 0.00 0.00 39 1011.1
20260905103029 73 215 2.0 4.0 0.00 0.00 0.00 39 1011.2
20260905101539 73 215 1.0 2.0 0.00 0.00 0.00 39 1011.2
20260905100028 73 215 1.0 2.0 0.00 0.00 0.00 39 1011.3
20260905094525 73 215 2.0 3.0 0.00 0.00 0.00 39 1011.3
20260905093025 73 215 0.0 2.0 0.00 0.00 0.00 39 1011.4
20260905091525 74 215 2.0 4.0 0.00 0.00 0.00 39 1011.3
20260905090023 74 215 2.0 3.0 0.00 0.00 0.00 39 1011.5
20260905084522 74 215 2.0 6.0 0.00 0.00 0.00 39 1011.5
20260905083027 74 198 3.0 8.0 0.00 0.00 0.00 39 1011.5
20260905081521 73 149 0.0 1.0 0.00 0.00 0.00 39 1011.5
20260905080020 73 149 0.0 0.0 0.00 0.00 0.00 39 1011.7
20260905074518 74 149 0.0 0.0 0.00 0.00 0.00 39 1011.8
20260905073022 74 149 0.0 1.0 0.00 0.00 0.00 39 1011.8
20260905071515 75 149 0.0 0.0 0.00 0.00 0.00 39 1011.8
20260905070016 75 149 0.0 2.0 0.00 0.00 0.00 39 1011.8
20260905064521 75 149 2.0 5.0 0.00 0.00 0.00 39 1011.8
20260905063013 75 149 1.0 3.0 0.00 0.00 0.00 39 1011.7
20260905061512 75 149 0.0 2.0 0.00 0.00 0.00 39 1011.8
20260905060018 75 149 0.0 3.0 0.00 0.00 0.00 39 1011.8
20260905054507 77 148 0.0 2.0 0.00 0.00 0.00 39 1011.7
20260905053017 77 148 1.0 5.0 0.00 0.00 0.00 39 1011.6
20260905051503 77 111 1.0 4.0 0.00 0.00 0.00 39 1011.6
20260905050100 77 110 2.0 4.0 0.00 0.00 0.00 39 1011.5
20260905044605 77 58 1.0 2.0 0.00 0.00 0.00 39 1011.7
20260905043059 77 57 1.0 3.0 0.00 0.00 0.00 39 1011.8
20260905041559 78 57 1.0 3.0 0.00 0.00 0.00 39 1011.9
20260905040058 78 57 0.0 3.0 0.00 0.00 0.00 39 1011.9
20260905034557 79 57 1.0 2.0 0.00 0.00 0.00 39 1011.9
20260905033102 79 57 0.0 2.0 0.00 0.00 0.00 39 1011.9
20260905031559 78 57 1.0 3.0 0.00 0.00 0.00 39 1011.8
20260905030120 79 57 0.0 1.0 0.00 0.00 0.00 39 1011.7
20260905024558 79 57 0.0 2.0 0.00 0.00 0.00 39 1011.5
20260905023057 80 57 0.0 2.0 0.00 0.00 0.00 39 1011.4
20260905021555 80 57 0.0 2.0 0.00 0.00 0.00 39 1011.3
20260905020104 82 57 0.0 2.0 0.00 0.00 0.00 39 1011.2
20260905014553 83 57 1.0 3.0 0.00 0.00 0.00 39 1011.0
20260905013053 83 57 2.0 3.0 0.00 0.00 0.00 39 1010.9